Location: Calvera
(42.3882°N, 0.6137°E)
Time: 14:17:59
(UTC+00:00)

NOSS 3-2 (C) - Pass Details

Date: 28 October 2020
Orbit: 788 x 1424 km, 63.4° (Epoch: 23 November)

Event Time Altitude Azimuth Distance (km) Brightness Sun altitude
Exits shadow 03:43:24 48° 2° (N) 1,191 3.9 -30.6°
Drops below altitude 10° 03:48:21 10° 31° (NNE) 2,795 6.3 -29.7°
Sets 03:51:13 0° 35° (NE) 3,851 7.2 -29.1°
